| time (UTC) | temp F | wind direction | speed MPH | gust MPH | rain 1hr in | rain 24hr in | rain mn in | humidity % | barometer mb |
| 20260508003204 | 63 | 320 | 0.0 | 2.0 | 0.00 | 0.00 | 0.00 | 70 | 1015.0 |
| 20260508002204 | 63 | 333 | 0.0 | 0.0 | 0.00 | 0.00 | 0.00 | 69 | 1014.9 |
| 20260508001704 | 63 | 333 | 0.0 | 0.0 | 0.00 | 0.00 | 0.00 | 69 | 1014.9 |
| 20260508001203 | 63 | 333 | 0.0 | 1.0 | 0.00 | 0.00 | 0.00 | 69 | 1014.9 |
| 20260508000704 | 63 | 301 | 0.0 | 0.0 | 0.00 | 0.00 | 0.00 | 69 | 1015.0 |
| 20260508000205 | 63 | 343 | 0.0 | 2.0 | 0.00 | 0.00 | 0.00 | 69 | 1015.0 |
| 20260507235704 | 63 | 34 | 0.0 | 3.0 | 0.00 | 0.00 | 0.00 | 69 | 1015.0 |
| 20260507235204 | 63 | 9 | 0.0 | 2.0 | 0.00 | 0.00 | 0.00 | 69 | 1015.0 |
| 20260507234203 | 63 | 350 | 0.0 | 1.0 | 0.00 | 0.00 | 0.00 | 69 | 1015.0 |
| 20260507233203 | 63 | 348 | 0.0 | 1.0 | 0.00 | 0.00 | 0.00 | 69 | 1015.1 |
| 20260507232203 | 63 | 7 | 0.0 | 0.0 | 0.00 | 0.00 | 0.00 | 69 | 1015.1 |
| 20260507231203 | 63 | 7 | 0.0 | 0.0 | 0.00 | 0.00 | 0.00 | 69 | 1015.1 |
| 20260507230703 | 63 | 0 | 0.0 | 0.0 | 0.00 | 0.00 | 0.00 | 68 | 1015.1 |
| 20260507230203 | 63 | 14 | 0.0 | 0.0 | 0.00 | 0.00 | 0.00 | 68 | 1015.1 |
| 20260507225703 | 63 | 18 | 0.0 | 1.0 | 0.00 | 0.00 | 0.00 | 68 | 1015.1 |
| 20260507225204 | 63 | 358 | 0.0 | 1.0 | 0.00 | 0.00 | 0.00 | 68 | 1015.0 |
| 20260507224703 | 64 | 331 | 0.0 | 1.0 | 0.00 | 0.00 | 0.00 | 68 | 1015.0 |
| 20260507224204 | 64 | 327 | 0.0 | 0.0 | 0.00 | 0.00 | 0.00 | 68 | 1015.0 |
| 20260507223704 | 64 | 327 | 0.0 | 0.0 | 0.00 | 0.00 | 0.00 | 68 | 1014.9 |
| 20260507222704 | 64 | 327 | 0.0 | 0.0 | 0.00 | 0.00 | 0.00 | 68 | 1014.9 |
| 20260507222204 | 64 | 327 | 0.0 | 1.0 | 0.00 | 0.00 | 0.00 | 68 | 1015.0 |
| 20260507221704 | 64 | 325 | 0.0 | 1.0 | 0.00 | 0.00 | 0.00 | 68 | 1015.0 |
| 20260507221205 | 64 | 324 | 0.0 | 0.0 | 0.00 | 0.00 | 0.00 | 69 | 1015.0 |
| 20260507220703 | 64 | 328 | 0.0 | 0.0 | 0.00 | 0.00 | 0.00 | 69 | 1014.9 |
| 20260507220203 | 64 | 328 | 0.0 | 0.0 | 0.00 | 0.00 | 0.00 | 69 | 1014.9 |
| 20260507215704 | 64 | 328 | 0.0 | 0.0 | 0.00 | 0.00 | 0.00 | 69 | 1014.9 |
| 20260507215204 | 64 | 327 | 0.0 | 0.0 | 0.00 | 0.00 | 0.00 | 69 | 1014.8 |
| 20260507214704 | 64 | 327 | 0.0 | 0.0 | 0.00 | 0.00 | 0.00 | 68 | 1014.8 |
| 20260507214203 | 64 | 334 | 0.0 | 1.0 | 0.00 | 0.00 | 0.00 | 67 | 1014.8 |
| 20260507213704 | 64 | 189 | 0.0 | 0.0 | 0.00 | 0.00 | 0.00 | 67 | 1014.7 |
| 20260507213203 | 64 | 189 | 0.0 | 0.0 | 0.00 | 0.00 | 0.00 | 67 | 1014.6 |
| 20260507212206 | 64 | 188 | 0.0 | 0.0 | 0.00 | 0.00 | 0.00 | 66 | 1014.6 |
| 20260507211704 | 64 | 188 | 0.0 | 0.0 | 0.00 | 0.00 | 0.00 | 66 | 1014.6 |
| 20260507211204 | 64 | 188 | 0.0 | 0.0 | 0.00 | 0.00 | 0.00 | 66 | 1014.6 |
| 20260507210704 | 64 | 188 | 1.0 | 2.0 | 0.00 | 0.00 | 0.00 | 66 | 1014.7 |
| 20260507210203 | 64 | 190 | 1.0 | 2.0 | 0.00 | 0.00 | 0.00 | 66 | 1014.7 |
| 20260507205703 | 65 | 150 | 2.0 | 2.0 | 0.00 | 0.00 | 0.00 | 66 | 1014.7 |
| 20260507205204 | 65 | 163 | 2.0 | 5.0 | 0.00 | 0.00 | 0.00 | 65 | 1014.6 |
| 20260507204704 | 65 | 158 | 1.0 | 7.0 | 0.00 | 0.00 | 0.00 | 65 | 1014.6 |
| 20260507204203 | 65 | 182 | 1.0 | 5.0 | 0.00 | 0.00 | 0.00 | 65 | 1014.6 |
| 20260507203704 | 65 | 181 | 2.0 | 5.0 | 0.00 | 0.00 | 0.00 | 65 | 1014.5 |
| 20260507203204 | 65 | 157 | 2.0 | 2.0 | 0.00 | 0.00 | 0.00 | 65 | 1014.5 |
| 20260507202703 | 65 | 183 | 1.0 | 3.0 | 0.00 | 0.00 | 0.00 | 65 | 1014.5 |
| 20260507202204 | 65 | 186 | 1.0 | 5.0 | 0.00 | 0.00 | 0.00 | 65 | 1014.3 |
| 20260507201703 | 65 | 166 | 2.0 | 5.0 | 0.00 | 0.00 | 0.00 | 65 | 1014.2 |
| 20260507201203 | 65 | 162 | 2.0 | 5.0 | 0.00 | 0.00 | 0.00 | 64 | 1014.2 |
| 20260507200704 | 65 | 166 | 2.0 | 6.0 | 0.00 | 0.00 | 0.00 | 64 | 1014.1 |
| 20260507200204 | 65 | 200 | 2.0 | 6.0 | 0.00 | 0.00 | 0.00 | 64 | 1014.1 |
| 20260507195704 | 65 | 176 | 3.0 | 7.0 | 0.00 | 0.00 | 0.00 | 64 | 1014.1 |
| 20260507195204 | 65 | 178 | 3.0 | 6.0 | 0.00 | 0.00 | 0.00 | 63 | 1014.0 |
| 20260507194704 | 65 | 183 | 3.0 | 6.0 | 0.00 | 0.00 | 0.00 | 63 | 1013.9 |
| 20260507194204 | 65 | 166 | 3.0 | 8.0 | 0.00 | 0.00 | 0.00 | 63 | 1013.9 |
| 20260507193704 | 66 | 173 | 5.0 | 8.0 | 0.00 | 0.00 | 0.00 | 62 | 1013.8 |
| 20260507193204 | 66 | 162 | 5.0 | 7.0 | 0.00 | 0.00 | 0.00 | 62 | 1013.7 |
| 20260507192705 | 66 | 178 | 6.0 | 10.0 | 0.00 | 0.00 | 0.00 | 62 | 1013.7 |
| 20260507191704 | 66 | 181 | 5.0 | 10.0 | 0.00 | 0.00 | 0.00 | 61 | 1013.6 |
| 20260507191204 | 67 | 172 | 5.0 | 12.0 | 0.00 | 0.00 | 0.00 | 60 | 1013.6 |
| 20260507190704 | 67 | 165 | 5.0 | 13.0 | 0.00 | 0.00 | 0.00 | 59 | 1013.5 |
| 20260507185704 | 67 | 189 | 5.0 | 9.0 | 0.00 | 0.00 | 0.00 | 58 | 1013.4 |
| 20260507185204 | 68 | 184 | 5.0 | 9.0 | 0.00 | 0.00 | 0.00 | 56 | 1013.3 |
| 20260507184706 | 68 | 193 | 0.0 | 7.0 | 0.00 | 0.00 | 0.00 | 51 | 1013.2 |
| 20260507183704 | 69 | 147 | 3.0 | 3.0 | 0.00 | 0.00 | 0.00 | 46 | 1013.1 |
| 20260507183204 | 69 | 147 | 3.0 | 3.0 | 0.00 | 0.00 | 0.00 | 46 | 1013.1 |
| 20260507182703 | 69 | 151 | 3.0 | 6.0 | 0.00 | 0.00 | 0.00 | 46 | 1013.1 |
| 20260507181704 | 69 | 145 | 2.0 | 7.0 | 0.00 | 0.00 | 0.00 | 45 | 1012.9 |
| 20260507181204 | 69 | 189 | 2.0 | 5.0 | 0.00 | 0.00 | 0.00 | 45 | 1012.9 |
| 20260507180705 | 69 | 178 | 2.0 | 5.0 | 0.00 | 0.00 | 0.00 | 45 | 1012.8 |
| 20260507175704 | 70 | 181 | 2.0 | 5.0 | 0.00 | 0.00 | 0.00 | 44 | 1012.8 |
| 20260507175204 | 70 | 185 | 2.0 | 5.0 | 0.00 | 0.00 | 0.00 | 45 | 1012.8 |
| 20260507174703 | 70 | 307 | 2.0 | 5.0 | 0.00 | 0.00 | 0.00 | 45 | 1012.8 |
| 20260507174204 | 70 | 183 | 2.0 | 5.0 | 0.00 | 0.00 | 0.00 | 45 | 1012.8 |
| 20260507173704 | 70 | 5 | 2.0 | 5.0 | 0.00 | 0.00 | 0.00 | 45 | 1012.7 |
| 20260507172704 | 70 | 192 | 2.0 | 5.0 | 0.00 | 0.00 | 0.00 | 45 | 1012.6 |
| 20260507172206 | 70 | 159 | 2.0 | 5.0 | 0.00 | 0.00 | 0.00 | 44 | 1012.6 |
| 20260507171704 | 70 | 172 | 2.0 | 5.0 | 0.00 | 0.00 | 0.00 | 45 | 1012.6 |
| 20260507171206 | 70 | 177 | 2.0 | 6.0 | 0.00 | 0.00 | 0.00 | 45 | 1012.6 |
| 20260507170703 | 70 | 177 | 2.0 | 7.0 | 0.00 | 0.00 | 0.00 | 45 | 1012.5 |
| 20260507170204 | 70 | 190 | 2.0 | 6.0 | 0.00 | 0.00 | 0.00 | 44 | 1012.5 |
| 20260507165704 | 70 | 169 | 2.0 | 7.0 | 0.00 | 0.00 | 0.00 | 44 | 1012.5 |
| 20260507165204 | 70 | 187 | 2.0 | 5.0 | 0.00 | 0.00 | 0.00 | 45 | 1012.6 |
| 20260507164703 | 70 | 164 | 2.0 | 5.0 | 0.00 | 0.00 | 0.00 | 45 | 1012.6 |
| 20260507163704 | 70 | 351 | 2.0 | 6.0 | 0.00 | 0.00 | 0.00 | 45 | 1012.6 |
| 20260507163203 | 70 | 187 | 2.0 | 8.0 | 0.00 | 0.00 | 0.00 | 45 | 1012.6 |
| 20260507162704 | 70 | 151 | 2.0 | 8.0 | 0.00 | 0.00 | 0.00 | 45 | 1012.6 |
| 20260507162204 | 71 | 193 | 2.0 | 6.0 | 0.00 | 0.00 | 0.00 | 45 | 1012.5 |
| 20260507161704 | 70 | 82 | 4.0 | 8.0 | 0.00 | 0.00 | 0.00 | 45 | 1012.5 |
| 20260507160704 | 70 | 263 | 3.0 | 2.0 | 0.00 | 0.00 | 0.00 | 45 | 1012.4 |
| 20260507160204 | 70 | 218 | 3.0 | 2.0 | 0.00 | 0.00 | 0.00 | 45 | 1012.4 |
| 20260507155704 | 70 | 218 | 3.0 | 2.0 | 0.00 | 0.00 | 0.00 | 45 | 1012.4 |
| 20260507155203 | 70 | 218 | 3.0 | 9.0 | 0.00 | 0.00 | 0.00 | 45 | 1012.4 |
| 20260507154704 | 70 | 189 | 5.0 | 8.0 | 0.00 | 0.00 | 0.00 | 46 | 1012.4 |
| 20260507154204 | 70 | 174 | 5.0 | 7.0 | 0.00 | 0.00 | 0.00 | 47 | 1012.4 |
| 20260507153705 | 70 | 195 | 3.0 | 9.0 | 0.00 | 0.00 | 0.00 | 46 | 1012.5 |
| 20260507153204 | 70 | 0 | 3.0 | 8.0 | 0.00 | 0.00 | 0.00 | 47 | 1012.5 |
| 20260507152704 | 70 | 180 | 3.0 | 12.0 | 0.00 | 0.00 | 0.00 | 48 | 1012.5 |
| 20260507152205 | 70 | 182 | 2.0 | 7.0 | 0.00 | 0.00 | 0.00 | 47 | 1012.5 |
| 20260507151203 | 70 | 175 | 2.0 | 8.0 | 0.00 | 0.00 | 0.00 | 47 | 1012.5 |
| 20260507150204 | 70 | 171 | 2.0 | 6.0 | 0.00 | 0.00 | 0.00 | 47 | 1012.6 |
| 20260507145704 | 70 | 188 | 3.0 | 7.0 | 0.00 | 0.00 | 0.00 | 47 | 1012.6 |
| 20260507145204 | 70 | 158 | 3.0 | 7.0 | 0.00 | 0.00 | 0.00 | 47 | 1012.6 |
| 20260507143704 | 70 | 87 | 2.0 | 6.0 | 0.00 | 0.00 | 0.00 | 48 | 1012.8 |
| 20260507143204 | 70 | 12 | 2.0 | 8.0 | 0.00 | 0.00 | 0.00 | 48 | 1012.9 |
| 20260507142704 | 70 | 175 | 4.0 | 6.0 | 0.00 | 0.00 | 0.00 | 48 | 1012.9 |
| 20260507142203 | 70 | 179 | 5.0 | 7.0 | 0.00 | 0.00 | 0.00 | 49 | 1012.9 |
| 20260507141704 | 69 | 189 | 4.0 | 7.0 | 0.00 | 0.00 | 0.00 | 48 | 1012.9 |
| 20260507141203 | 69 | 182 | 5.0 | 5.0 | 0.00 | 0.00 | 0.00 | 49 | 1012.9 |
| 20260507140704 | 69 | 182 | 5.0 | 5.0 | 0.00 | 0.00 | 0.00 | 49 | 1013.0 |
| 20260507140206 | 69 | 182 | 5.0 | 7.0 | 0.00 | 0.00 | 0.00 | 49 | 1013.0 |
| 20260507135704 | 69 | 191 | 3.0 | 10.0 | 0.00 | 0.00 | 0.00 | 49 | 1013.0 |
| 20260507135205 | 69 | 175 | 3.0 | 9.0 | 0.00 | 0.00 | 0.00 | 49 | 1013.1 |
| 20260507134704 | 69 | 172 | 3.0 | 7.0 | 0.00 | 0.00 | 0.00 | 49 | 1013.1 |
| 20260507133204 | 69 | 178 | 2.0 | 7.0 | 0.00 | 0.00 | 0.00 | 49 | 1013.3 |
| 20260507132705 | 69 | 154 | 3.0 | 6.0 | 0.00 | 0.00 | 0.00 | 49 | 1013.3 |
| 20260507132203 | 68 | 173 | 3.0 | 8.0 | 0.00 | 0.00 | 0.00 | 49 | 1013.4 |
| 20260507131704 | 69 | 187 | 3.0 | 8.0 | 0.00 | 0.00 | 0.00 | 49 | 1013.4 |
| 20260507131204 | 69 | 153 | 3.0 | 7.0 | 0.00 | 0.00 | 0.00 | 48 | 1013.4 |
| 20260507130704 | 69 | 169 | 3.0 | 6.0 | 0.00 | 0.00 | 0.00 | 47 | 1013.5 |
| 20260507130204 | 69 | 2 | 2.0 | 10.0 | 0.00 | 0.00 | 0.00 | 49 | 1013.5 |
| 20260507125703 | 69 | 174 | 2.0 | 7.0 | 0.00 | 0.00 | 0.00 | 48 | 1013.5 |
| 20260507125204 | 68 | 135 | 2.0 | 5.0 | 0.00 | 0.00 | 0.00 | 49 | 1013.6 |
| 20260507124703 | 68 | 135 | 2.0 | 5.0 | 0.00 | 0.00 | 0.00 | 49 | 1013.7 |
| 20260507124204 | 68 | 135 | 2.0 | 5.0 | 0.00 | 0.00 | 0.00 | 49 | 1013.7 |
| 20260507123704 | 68 | 194 | 4.0 | 7.0 | 0.00 | 0.00 | 0.00 | 49 | 1013.6 |
| 20260507123204 | 67 | 340 | 5.0 | 7.0 | 0.00 | 0.00 | 0.00 | 50 | 1013.6 |
| 20260507122205 | 67 | 192 | 3.0 | 6.0 | 0.00 | 0.00 | 0.00 | 51 | 1013.7 |
| 20260507121704 | 67 | 180 | 5.0 | 7.0 | 0.00 | 0.00 | 0.00 | 51 | 1013.7 |
| 20260507121204 | 67 | 192 | 5.0 | 7.0 | 0.00 | 0.00 | 0.00 | 51 | 1013.7 |
| 20260507120704 | 67 | 137 | 5.0 | 10.0 | 0.00 | 0.02 | 0.00 | 54 | 1013.8 |
| 20260507120204 | 67 | 197 | 5.0 | 14.0 | 0.00 | 0.02 | 0.00 | 53 | 1013.9 |
| 20260507115704 | 67 | 140 | 2.0 | 7.0 | 0.00 | 0.02 | 0.00 | 52 | 1013.9 |
| 20260507115204 | 67 | 185 | 2.0 | 9.0 | 0.00 | 0.02 | 0.00 | 53 | 1014.0 |
| 20260507114704 | 67 | 190 | 3.0 | 8.0 | 0.00 | 0.02 | 0.00 | 55 | 1014.1 |
| 20260507114204 | 67 | 195 | 3.0 | 6.0 | 0.00 | 0.02 | 0.00 | 56 | 1014.1 |
| 20260507113704 | 67 | 195 | 3.0 | 6.0 | 0.00 | 0.02 | 0.00 | 56 | 1014.2 |
| 20260507113204 | 67 | 195 | 3.0 | 9.0 | 0.00 | 0.02 | 0.00 | 56 | 1014.2 |
| 20260507112204 | 66 | 176 | 5.0 | 7.0 | 0.00 | 0.02 | 0.00 | 58 | 1014.3 |
| 20260507111704 | 65 | 199 | 3.0 | 12.0 | 0.00 | 0.02 | 0.00 | 58 | 1014.4 |
| 20260507111204 | 65 | 172 | 2.0 | 7.0 | 0.00 | 0.02 | 0.00 | 59 | 1014.4 |
| 20260507110704 | 65 | 166 | 2.0 | 5.0 | 0.00 | 0.02 | 0.00 | 60 | 1014.5 |
| 20260507110205 | 65 | 172 | 2.0 | 7.0 | 0.00 | 0.02 | 0.00 | 60 | 1014.5 |
| 20260507105704 | 65 | 88 | 3.0 | 6.0 | 0.00 | 0.02 | 0.00 | 60 | 1014.5 |
| 20260507105203 | 66 | 44 | 3.0 | 6.0 | 0.00 | 0.02 | 0.00 | 61 | 1014.6 |
| 20260507104704 | 66 | 118 | 2.0 | 10.0 | 0.00 | 0.02 | 0.00 | 60 | 1014.6 |
| 20260507104204 | 66 | 181 | 3.0 | 2.0 | 0.00 | 0.02 | 0.00 | 59 | 1014.6 |
| 20260507103704 | 66 | 181 | 3.0 | 2.0 | 0.00 | 0.02 | 0.00 | 59 | 1014.7 |
| 20260507102704 | 66 | 170 | 3.0 | 6.0 | 0.00 | 0.02 | 0.00 | 58 | 1014.7 |
| 20260507102204 | 66 | 164 | 2.0 | 6.0 | 0.00 | 0.02 | 0.00 | 58 | 1014.7 |
| 20260507101704 | 66 | 199 | 2.0 | 7.0 | 0.00 | 0.02 | 0.00 | 58 | 1014.7 |
| 20260507101204 | 65 | 170 | 2.0 | 7.0 | 0.00 | 0.02 | 0.00 | 59 | 1014.7 |
| 20260507100704 | 65 | 171 | 2.0 | 7.0 | 0.00 | 0.02 | 0.00 | 59 | 1014.8 |
| 20260507100204 | 64 | 50 | 2.0 | 3.0 | 0.00 | 0.02 | 0.00 | 62 | 1014.8 |
| 20260507095703 | 64 | 141 | 2.0 | 5.0 | 0.00 | 0.02 | 0.00 | 63 | 1014.8 |
| 20260507095205 | 63 | 202 | 2.0 | 6.0 | 0.00 | 0.02 | 0.00 | 65 | 1014.7 |
| 20260507094204 | 63 | 197 | 0.0 | 6.0 | 0.00 | 0.02 | 0.00 | 65 | 1014.6 |
| 20260507093704 | 63 | 165 | 1.0 | 3.0 | 0.00 | 0.02 | 0.00 | 64 | 1014.7 |
| 20260507093205 | 62 | 189 | 1.0 | 0.0 | 0.00 | 0.02 | 0.00 | 67 | 1014.7 |
| 20260507092705 | 62 | 189 | 1.0 | 0.0 | 0.00 | 0.02 | 0.00 | 67 | 1014.7 |
| 20260507091704 | 62 | 190 | 0.0 | 5.0 | 0.00 | 0.02 | 0.00 | 67 | 1014.7 |
| 20260507091203 | 62 | 170 | 0.0 | 2.0 | 0.00 | 0.02 | 0.00 | 67 | 1014.7 |
| 20260507090704 | 64 | 154 | 1.0 | 0.0 | 0.00 | 0.02 | 0.00 | 63 | 1014.6 |
| 20260507090204 | 64 | 155 | 1.0 | 0.0 | 0.00 | 0.02 | 0.00 | 63 | 1014.5 |
| 20260507085706 | 64 | 155 | 1.0 | 0.0 | 0.00 | 0.02 | 0.00 | 63 | 1014.5 |
| 20260507085204 | 64 | 154 | 1.0 | 2.0 | 0.00 | 0.02 | 0.00 | 63 | 1014.4 |
| 20260507084704 | 64 | 74 | 1.0 | 5.0 | 0.00 | 0.02 | 0.00 | 62 | 1014.4 |
| 20260507084204 | 65 | 168 | 1.0 | 2.0 | 0.00 | 0.02 | 0.00 | 61 | 1014.4 |
| 20260507083704 | 65 | 156 | 1.0 | 5.0 | 0.00 | 0.02 | 0.00 | 61 | 1014.5 |
| 20260507083204 | 64 | 1 | 1.0 | 6.0 | 0.00 | 0.02 | 0.00 | 62 | 1014.5 |
| 20260507082705 | 64 | 192 | 1.0 | 6.0 | 0.00 | 0.02 | 0.00 | 63 | 1014.5 |
| 20260507081204 | 64 | 180 | 1.0 | 8.0 | 0.00 | 0.02 | 0.00 | 63 | 1014.4 |
| 20260507080204 | 63 | 181 | 2.0 | 2.0 | 0.00 | 0.02 | 0.00 | 66 | 1014.4 |
| 20260507075704 | 63 | 179 | 2.0 | 2.0 | 0.00 | 0.02 | 0.00 | 66 | 1014.4 |
| 20260507075204 | 63 | 179 | 2.0 | 2.0 | 0.00 | 0.02 | 0.00 | 66 | 1014.4 |
| 20260507074704 | 63 | 179 | 2.0 | 3.0 | 0.00 | 0.02 | 0.00 | 65 | 1014.4 |
| 20260507074204 | 62 | 180 | 2.0 | 5.0 | 0.00 | 0.02 | 0.00 | 66 | 1014.4 |
| 20260507073705 | 62 | 176 | 2.0 | 7.0 | 0.00 | 0.02 | 0.00 | 66 | 1014.4 |
| 20260507073205 | 61 | 223 | 2.0 | 5.0 | 0.00 | 0.02 | 0.00 | 65 | 1014.4 |
| 20260507072703 | 61 | 186 | 0.0 | 5.0 | 0.00 | 0.02 | 0.00 | 65 | 1014.4 |
| 20260507071704 | 61 | 13 | 1.0 | 5.0 | 0.00 | 0.02 | 0.00 | 66 | 1014.3 |
| 20260507071204 | 61 | 15 | 1.0 | 2.0 | 0.00 | 0.02 | 0.00 | 67 | 1014.3 |
| 20260507070704 | 61 | 46 | 0.0 | 6.0 | 0.00 | 0.02 | 0.00 | 68 | 1014.3 |
| 20260507070204 | 61 | 160 | 0.0 | 5.0 | 0.00 | 0.02 | 0.00 | 69 | 1014.3 |
| 20260507065704 | 60 | 328 | 0.0 | 1.0 | 0.00 | 0.02 | 0.00 | 74 | 1014.3 |
| 20260507065204 | 60 | 338 | 0.0 | 0.0 | 0.00 | 0.02 | 0.00 | 76 | 1014.2 |
| 20260507064704 | 60 | 328 | 0.0 | 2.0 | 0.00 | 0.02 | 0.00 | 76 | 1014.2 |
| 20260507064204 | 60 | 325 | 0.0 | 1.0 | 0.00 | 0.02 | 0.00 | 76 | 1014.2 |
| 20260507063704 | 60 | 34 | 0.0 | 2.0 | 0.00 | 0.02 | 0.00 | 76 | 1014.1 |
| 20260507063204 | 60 | 299 | 0.0 | 2.0 | 0.00 | 0.02 | 0.00 | 77 | 1014.1 |
| 20260507062704 | 59 | 343 | 0.0 | 2.0 | 0.00 | 0.02 | 0.00 | 78 | 1014.1 |
| 20260507062205 | 59 | 46 | 0.0 | 5.0 | 0.00 | 0.02 | 0.00 | 79 | 1014.0 |
| 20260507061204 | 58 | 22 | 0.0 | 1.0 | 0.00 | 0.02 | 0.00 | 82 | 1014.0 |
| 20260507060705 | 58 | 325 | 0.0 | 2.0 | 0.00 | 0.02 | 0.00 | 83 | 1013.9 |
| 20260507060205 | 57 | 72 | 0.0 | 2.0 | 0.00 | 0.02 | 0.00 | 84 | 1013.8 |
| 20260507055705 | 57 | 351 | 0.0 | 2.0 | 0.00 | 0.02 | 0.00 | 83 | 1013.8 |
| 20260507055204 | 57 | 29 | 0.0 | 2.0 | 0.00 | 0.02 | 0.00 | 84 | 1013.7 |
| 20260507054705 | 57 | 322 | 0.0 | 2.0 | 0.00 | 0.02 | 0.00 | 85 | 1013.7 |
| 20260507054204 | 56 | 323 | 0.0 | 2.0 | 0.00 | 0.02 | 0.00 | 85 | 1013.7 |
| 20260507053704 | 56 | 327 | 0.0 | 2.0 | 0.00 | 0.02 | 0.00 | 85 | 1013.6 |
| 20260507053204 | 56 | 316 | 0.0 | 2.0 | 0.00 | 0.03 | 0.00 | 86 | 1013.6 |
| 20260507052704 | 56 | 327 | 0.0 | 2.0 | 0.00 | 0.03 | 0.00 | 86 | 1013.6 |
| 20260507051704 | 56 | 312 | 0.0 | 0.0 | 0.00 | 0.04 | 0.00 | 86 | 1013.3 |
| 20260507051204 | 56 | 310 | 0.0 | 0.0 | 0.00 | 0.05 | 0.00 | 86 | 1013.3 |
| 20260507050205 | 55 | 303 | 0.0 | 0.0 | 0.00 | 0.05 | 0.00 | 87 | 1013.2 |
| 20260507045704 | 55 | 303 | 0.0 | 0.0 | 0.00 | 0.06 | 0.00 | 88 | 1013.2 |
| 20260507045204 | 55 | 303 | 0.0 | 0.0 | 0.00 | 0.06 | 0.00 | 88 | 1013.1 |
| 20260507044705 | 55 | 303 | 0.0 | 0.0 | 0.00 | 0.06 | 0.00 | 89 | 1013.0 |
| 20260507044204 | 55 | 302 | 0.0 | 0.0 | 0.00 | 0.06 | 0.00 | 89 | 1013.0 |
| 20260507043704 | 55 | 301 | 0.0 | 1.0 | 0.00 | 0.06 | 0.00 | 89 | 1013.0 |
| 20260507043204 | 55 | 232 | 0.0 | 0.0 | 0.00 | 0.06 | 0.00 | 89 | 1013.0 |
| 20260507042704 | 55 | 232 | 0.0 | 0.0 | 0.00 | 0.07 | 0.00 | 89 | 1013.0 |
| 20260507042204 | 55 | 231 | 0.0 | 2.0 | 0.00 | 0.07 | 0.00 | 88 | 1012.9 |
| 20260507041704 | 55 | 294 | 0.0 | 1.0 | 0.00 | 0.07 | 0.00 | 88 | 1012.9 |
| 20260507041204 | 55 | 309 | 0.0 | 0.0 | 0.00 | 0.08 | 0.00 | 88 | 1012.9 |
| 20260507040704 | 55 | 309 | 0.0 | 0.0 | 0.00 | 0.08 | 0.00 | 88 | 1012.8 |
| 20260507040204 | 55 | 306 | 0.0 | 2.0 | 0.00 | 0.08 | 0.00 | 88 | 1012.7 |
| 20260507035705 | 55 | 7 | 0.0 | 2.0 | 0.00 | 0.08 | 0.00 | 88 | 1012.7 |
| 20260507035204 | 55 | 18 | 0.0 | 2.0 | 0.00 | 0.08 | 0.00 | 88 | 1012.6 |
| 20260507034704 | 55 | 17 | 1.0 | 1.0 | 0.00 | 0.08 | 0.00 | 87 | 1012.6 |
| 20260507034204 | 55 | 0 | 1.0 | 0.0 | 0.00 | 0.09 | 0.00 | 87 | 1012.6 |
| 20260507033704 | 55 | 4 | 2.0 | 2.0 | 0.00 | 0.09 | 0.00 | 87 | 1012.5 |
| 20260507033205 | 55 | 336 | 2.0 | 5.0 | 0.00 | 0.09 | 0.00 | 87 | 1012.4 |
| 20260507032704 | 55 | 15 | 2.0 | 5.0 | 0.00 | 0.11 | 0.00 | 87 | 1012.4 |
| 20260507032204 | 55 | 0 | 2.0 | 7.0 | 0.00 | 0.11 | 0.00 | 87 | 1012.4 |
| 20260507031704 | 55 | 32 | 2.0 | 7.0 | 0.00 | 0.12 | 0.00 | 87 | 1012.4 |
| 20260507030704 | 55 | 18 | 1.0 | 6.0 | 0.00 | 0.12 | 0.00 | 87 | 1012.5 |
| 20260507030204 | 55 | 36 | 1.0 | 6.0 | 0.00 | 0.12 | 0.00 | 86 | 1012.5 |
| 20260507025705 | 55 | 352 | 2.0 | 5.0 | 0.00 | 0.12 | 0.00 | 86 | 1012.5 |
| 20260507025205 | 55 | 294 | 2.0 | 5.0 | 0.00 | 0.12 | 0.00 | 86 | 1012.6 |
| 20260507024705 | 55 | 15 | 3.0 | 2.0 | 0.00 | 0.12 | 0.00 | 86 | 1012.6 |
| 20260507022706 | 56 | 330 | 1.0 | 5.0 | 0.00 | 0.12 | 0.00 | 84 | 1012.5 |
| 20260507022204 | 56 | 312 | 1.0 | 5.0 | 0.00 | 0.12 | 0.00 | 84 | 1012.5 |
| 20260507021704 | 56 | 303 | 1.0 | 7.0 | 0.00 | 0.12 | 0.00 | 84 | 1012.5 |
| 20260507020704 | 56 | 332 | 5.0 | 2.0 | 0.00 | 0.12 | 0.00 | 84 | 1012.4 |
| 20260507020205 | 56 | 333 | 5.0 | 5.0 | 0.00 | 0.12 | 0.00 | 83 | 1012.4 |
| 20260507014704 | 56 | 326 | 5.0 | 8.0 | 0.00 | 0.12 | 0.00 | 82 | 1012.4 |
| 20260507013704 | 56 | 332 | 5.0 | 8.0 | 0.00 | 0.12 | 0.00 | 82 | 1012.3 |
| 20260507013204 | 56 | 334 | 5.0 | 8.0 | 0.00 | 0.12 | 0.00 | 82 | 1012.3 |
| 20260507012704 | 56 | 331 | 2.0 | 8.0 | 0.00 | 0.12 | 0.00 | 81 | 1012.3 |
| 20260507012204 | 56 | 331 | 2.0 | 8.0 | 0.00 | 0.12 | 0.00 | 81 | 1012.3 |
| 20260507011704 | 57 | 329 | 0.0 | 7.0 | 0.00 | 0.12 | 0.00 | 81 | 1012.3 |
| 20260507010704 | 57 | 314 | 0.0 | 2.0 | 0.00 | 0.12 | 0.00 | 81 | 1012.3 |
| 20260507010204 | 57 | 312 | 0.0 | 2.0 | 0.00 | 0.12 | 0.00 | 81 | 1012.3 |
| 20260507005704 | 57 | 312 | 0.0 | 2.0 | 0.00 | 0.12 | 0.00 | 80 | 1012.3 |
| 20260507005205 | 57 | 311 | 0.0 | 1.0 | 0.00 | 0.12 | 0.00 | 80 | 1012.2 |
| 20260507004705 | 57 | 324 | 0.0 | 2.0 | 0.00 | 0.12 | 0.00 | 80 | 1012.1 |
| 20260507004204 | 57 | 305 | 0.0 | 2.0 | 0.00 | 0.12 | 0.00 | 80 | 1012.1 |
| 20260507003706 | 57 | 321 | 2.0 | 1.0 | 0.00 | 0.13 | 0.00 | 80 | 1012.0 |